Wind_Speed
2 7 3 7 4 5 5 5 6 3 2 6 11 11 7 12 12 12 12 12 12 11 10 9 8 7 5 4 3 2 3 5 6 6 7 6 6 6 6 8 10 12 13 14
6 5 6 3 2 4 4 6 3 3 1 4 8 11 10 11 14 14 13 13 13 12 10 11 10 8 6 4 3 3 2 4 5 5 6 5 6 5 6 8 9 11 11 12
8 5 3 2 4 7 5 6 4 4 4 10 9 8 8 9 11 12 14 13 14 14 13 11 11 9 7 6 4 3 2 3 3 4 4 5 4 5 6 8 9 11 11 12
3 3 3 4 7 5 9 3 2 4 4 3 3 2 10 11 11 13 14 15 15 14 12 11 11 10 8 7 6 5 4 2 3 3 3 4 5 6 6 7 8 9 10 10
4 2 3 6 3 3 5 3 5 5 7 7 7 4 8 8 10 13 15 16 16 14 14 12 13 12 11 10 9 7 5 4 4 4 4 3 5 5 5 6 8 8 9 9
2 1 1 4 1 1 1 6 7 4 5 5 7 3 8 7 6 7 12 14 15 15 14 15 14 13 12 11 9 8 7 6 6 6 5 5 6 6 6 7 8 8 8 8
5 4 2 1 4 3 4 7 3 4 4 3 3 4 4 9 7 6 10 13 14 15 14 13 15 14 13 13 11 10 9 9 8 7 6 6 7 7 7 7 7 9 9 9
6 5 4 2 2 4 2 4 4 5 3 5 3 5 3 6 6 6 5 8 13 14 14 14 16 16 15 15 14 12 10 10 8 8 6 6 7 6 7 7 8 9 9 10
3 2 3 2 1 2 3 2 3 5 2 4 4 4 6 6 8 8 10 10 12 15 15 15 17 18 16 15 15 14 12 11 9 8 7 7 7 7 7 8 8 9 10 11
3 3 1 2 2 2 3 3 3 4 4 4 4 5 3 10 13 12 13 14 13 15 15 14 18 19 17 16 15 14 13 12 10 9 9 8 7 8 8 8 9 10 11 11
2 2 4 2 6 1 4 3 4 3 3 4 5 0 5 6 10 12 13 14 14 16 16 15 18 19 18 17 17 16 16 14 12 11 9 8 8 8 8 9 9 10 11 12
4 2 4 1 3 2 4 3 4 2 2 2 3 7 0 1 5 6 9 12 14 13 16 15 19 20 19 20 18 18 16 14 13 11 10 9 8 8 9 9 9 10 11 12
5 5 3 5 3 2 5 5 6 1 1 7 3 5 1 3 5 7 9 11 13 15 16 16 19 21 21 21 20 18 17 15 13 12 11 9 9 8 9 9 9 10 11 11
1 3 7 7 6 2 4 7 10 10 5 7 13 20 17 11 11 11 12 12 14 15 17 16 16 21 22 22 22 20 18 16 15 13 12 11 10 9 9 8 9 9 10 10
3 6 9 11 9 6 9 10 12 14 21 12 19 17 19 19 19 17 13 13 14 15 17 17 16 20 23 22 22 21 19 18 16 15 13 12 11 9 9 8 9 9 9 9
5 4 3 11 9 10 12 14 15 19 20 19 21 24 21 14 9 11 13 12 15 17 17 18 17 22 23 24 23 22 21 20 18 16 15 13 12 10 10 9 9 9 9 8
6 5 4 12 0 4 10 19 17 11 11 10 10 13 12 16 14 11 10 11 14 16 16 17 17 22 23 24 24 23 22 20 19 18 16 15 14 13 11 10 9 9 9 8
7 10 3 7 10 11 7 1 3 12 10 12 17 18 16 18 16 12 12 11 12 13 15 15 18 22 24 23 24 22 22 21 20 19 17 16 15 14 12 11 11 9 9 8
6 8 3 5 10 16 17 4 5 5 1 2 7 10 13 10 8 3 6 10 11 9 10 16 20 21 23 24 24 24 23 22 21 20 19 17 16 14 13 13 12 11 10 10
5 6 5 5 4 7 2 4 3 2 6 4 2 6 9 7 5 4 7 6 6 9 8 12 17 20 22 24 25 24 24 24 23 22 20 17 16 15 14 13 12 11 11 11
5 6 9 11 8 10 8 8 5 5 2 2 2 2 4 4 5 11 9 8 6 6 9 10 15 19 21 23 25 25 24 25 23 20 19 18 17 16 14 13 12 11 11 11
10 10 6 7 6 12 9 6 6 2 4 1 4 5 7 9 10 11 10 9 6 5 6 11 14 17 19 22 25 24 25 22 20 20 19 19 18 16 14 13 12 11 11 11
9 9 5 11 8 2 11 7 5 1 1 4 4 6 8 11 9 9 9 8 6 6 8 11 14 15 18 22 25 24 23 21 21 20 19 18 17 17 15 14 13 12 11 12
10 6 4 10 12 15 14 13 11 10 9 8 8 8 7 8 9 8 6 7 7 7 10 12 15 17 19 22 24 24 21 22 21 21 20 18 18 17 16 15 14 13 12 11
7 7 7 13 14 15 15 13 9 6 6 8 11 10 7 7 9 9 8 7 9 10 11 14 16 17 19 21 23 23 22 23 22 21 20 19 18 18 16 17 16 14 13 12
9 12 10 11 12 7 11 4 6 8 11 12 12 10 7 8 10 9 10 12 12 10 12 15 17 18 19 21 23 23 24 24 23 21 21 19 18 16 16 15 14 16 16 16
Wind_Direction
174 266 278 8 355 338 318 303 296 98 112 274 252 258 242 192 212 217 211 213 210 213 201 192 204 212 229 249 256 284 313 341 350 351 353 348 355 354 354 353 352 352 353 352
228 248 51 40 312 290 283 292 310 111 164 254 282 265 243 209 209 216 219 217 215 210 198 199 208 214 222 239 246 268 309 336 339 346 342 334 332 334 340 347 345 349 347 348
292 49 99 278 272 279 247 289 332 317 304 244 277 253 196 216 209 210 223 223 219 212 209 205 203 214 214 226 225 249 266 301 322 331 331 332 316 320 337 342 342 345 346 350
348 81 256 260 280 311 290 70 296 293 291 344 218 341 193 171 208 215 218 219 217 209 210 207 203 212 213 214 209 215 232 253 294 305 307 321 314 322 328 329 330 340 345 346
76 193 247 263 20 337 11 302 280 281 269 298 191 256 117 169 219 212 213 210 210 204 203 204 200 204 208 204 208 212 220 230 246 265 274 293 298 305 315 323 326 333 336 334
55 110 299 4 77 5 24 267 245 251 252 232 125 271 165 183 209 167 185 200 199 203 197 203 202 199 203 202 207 210 219 230 237 241 251 270 285 303 310 318 321 326 326 327
165 172 122 248 250 186 238 271 239 202 211 12 124 255 304 138 148 167 181 190 193 194 195 195 197 201 206 204 207 211 218 228 232 238 246 257 274 290 293 303 310 318 320 323
268 218 188 124 313 340 297 319 308 299 314 342 168 229 137 132 135 153 165 188 187 193 196 197 202 203 205 209 211 214 221 229 234 236 246 253 262 276 284 287 299 305 310 313
281 142 119 34 325 304 111 249 2 295 230 267 220 209 154 175 184 192 200 195 201 195 197 199 202 205 208 210 210 212 218 228 235 237 246 250 257 265 277 285 291 298 305 307
37 259 203 111 243 184 268 348 247 191 303 285 216 276 269 202 218 199 208 207 207 200 199 200 203 204 206 209 210 214 222 225 227 231 238 247 255 264 274 280 287 296 302 306
243 238 121 201 204 171 164 199 214 289 265 302 311 240 15 176 195 201 207 207 202 200 202 202 204 204 205 206 206 210 215 221 225 228 236 243 256 265 276 281 290 296 301 306
167 286 259 31 92 356 301 292 243 254 163 237 283 275 262 63 180 200 196 196 200 200 199 202 205 203 202 206 208 211 215 218 221 226 234 243 256 267 276 284 290 296 300 306
165 200 254 177 178 177 235 205 244 184 215 238 268 265 97 211 226 226 231 198 197 198 199 200 202 205 205 206 208 212 215 217 219 221 227 237 249 260 273 284 293 296 300 304
301 274 259 280 357 88 196 202 215 218 222 251 234 274 285 258 235 236 230 227 202 200 201 202 203 206 208 208 206 206 211 212 214 218 224 232 242 253 266 277 283 290 296 300
241 263 265 270 281 239 261 253 208 211 231 259 272 276 288 296 300 281 239 228 221 206 205 205 206 206 207 208 208 207 207 207 209 214 220 228 236 244 256 266 275 283 289 294
195 259 266 277 267 258 257 260 248 232 252 263 269 278 281 292 325 297 259 238 221 220 212 209 208 209 207 206 207 206 206 205 206 212 219 223 229 235 245 255 264 270 279 286
186 221 244 273 21 274 268 243 235 227 226 242 255 265 322 315 302 289 286 258 234 225 217 211 207 207 208 203 201 205 206 204 206 211 215 218 223 230 236 246 254 260 270 279
212 217 221 274 279 264 269 107 308 234 247 244 265 286 298 306 298 285 278 273 256 230 225 214 207 205 206 204 200 201 202 205 207 211 216 219 222 228 234 241 249 254 261 268
235 208 225 237 250 278 296 221 174 172 31 137 262 297 313 324 303 349 347 244 263 266 227 223 210 204 200 199 198 197 199 203 207 212 216 218 221 226 230 238 246 251 257 266
207 257 235 179 240 258 44 137 168 190 241 136 175 320 332 330 339 40 11 2 326 261 248 213 205 201 200 197 194 197 199 202 207 210 214 216 220 226 231 238 246 252 257 265
185 194 212 225 243 263 288 152 166 239 337 101 303 335 296 287 303 317 320 309 322 291 228 210 204 200 201 194 191 199 204 208 207 207 210 213 217 222 230 239 246 252 258 266
176 174 187 207 220 252 144 126 216 99 123 259 300 310 286 288 303 307 308 301 298 274 225 209 205 206 201 195 195 202 209 207 206 205 208 212 215 219 225 233 242 248 255 265
230 211 197 196 207 155 186 247 230 348 301 300 276 300 309 303 303 310 310 304 286 261 231 215 214 209 207 201 199 206 210 202 200 204 210 213 216 220 224 229 235 242 249 256
209 226 239 243 238 255 249 228 242 256 259 268 282 295 298 290 299 306 313 299 281 250 230 215 212 216 209 206 205 211 203 200 199 205 210 212 216 219 222 228 231 235 239 247
259 173 231 250 261 281 269 245 228 248 254 273 287 287 262 264 280 297 299 296 277 254 228 218 216 219 218 205 208 210 205 196 200 206 209 212 215 218 222 226 226 229 235 238
218 240 236 247 263 297 283 132 185 280 286 286 281 278 267 273 279 291 286 290 279 256 231 219 222 219 217 211 208 205 204 199 198 204 209 209 211 214 220 224 232 240 244 241
Height
808 813 807 809 813 815 815 815 814 815 830 833 824 821 817 828 836 837 837 839 842 846 850 856 860 863 865 866 867 868 869 869 869 868 867 867 866 864 862 861 860 858 856 853
812 810 815 818 820 820 817 816 809 822 831 835 817 817 812 814 827 831 832 834 836 842 846 853 857 861 862 864 866 867 869 869 868 868 867 867 865 864 863 861 860 858 855 852
814 820 821 823 821 821 811 819 817 825 825 824 827 814 813 813 817 824 827 828 831 836 842 847 853 857 860 862 864 867 867 867 867 867 866 866 864 862 862 862 860 858 856 854
816 823 825 824 823 825 822 825 828 828 827 810 820 803 803 811 819 821 824 825 827 833 839 843 849 854 857 859 861 863 864 865 866 865 863 863 862 862 862 860 858 856 855 853
825 825 827 826 825 829 828 832 829 828 826 819 814 816 799 801 808 808 813 817 822 828 834 840 845 849 853 856 858 860 862 863 863 863 863 862 861 860 859 858 856 854 853 850
821 826 826 827 831 831 832 832 828 827 821 818 804 811 794 794 787 790 798 809 816 824 830 836 841 846 850 854 857 858 859 861 860 860 861 861 860 860 858 856 855 852 851 849
823 825 831 831 830 831 832 823 812 813 817 798 813 816 779 778 786 788 796 804 811 819 826 833 838 844 849 851 854 855 857 857 857 858 858 859 859 858 857 855 853 851 849 847
812 821 830 832 829 832 824 828 822 829 806 800 824 810 782 777 789 796 799 801 808 816 823 829 835 840 844 847 850 852 854 855 856 856 857 857 856 856 855 853 851 850 848 846
813 822 836 837 835 836 831 829 831 825 816 817 782 778 790 793 795 800 802 806 807 812 818 825 830 835 839 843 846 848 850 852 854 855 855 854 854 853 852 851 850 848 847 845
810 822 834 839 839 837 834 833 829 825 838 817 775 777 770 790 786 790 798 801 805 809 815 820 825 830 835 838 842 845 847 849 850 851 851 852 851 850 849 848 848 847 845 843
811 817 837 839 834 820 835 827 831 832 822 820 807 772 762 763 769 775 784 791 797 803 809 815 820 825 830 833 837 839 841 844 846 848 848 849 849 848 848 847 846 845 843 841
808 809 814 818 832 834 830 820 816 829 823 821 828 804 767 762 765 769 774 782 791 797 803 809 815 819 824 828 832 835 838 841 843 845 846 846 847 847 846 845 843 843 841 839
812 810 814 826 834 835 832 824 821 824 828 823 822 789 774 773 776 773 774 777 785 792 798 803 809 813 817 822 827 831 834 837 839 841 842 843 843 844 843 842 842 840 838 836
823 809 806 810 806 808 825 826 825 821 822 808 796 777 767 768 774 771 772 773 777 785 791 797 801 806 810 815 819 823 827 831 834 836 838 839 840 840 840 839 838 837 835 832
818 813 801 799 800 811 810 808 823 826 800 802 782 776 764 762 762 756 758 767 773 778 785 790 795 799 804 809 814 817 821 824 828 831 833 835 835 836 836 836 835 834 832 830
813 811 810 808 798 805 813 806 804 806 805 798 788 783 763 758 756 752 751 757 765 771 777 783 789 794 797 802 807 812 815 819 823 826 827 830 831 831 831 831 831 829 828 827
811 811 813 809 806 810 807 792 788 788 787 788 790 766 755 760 759 758 757 757 758 763 768 775 780 785 791 795 800 806 810 814 817 820 822 823 825 826 826 826 826 826 825 825
805 805 809 811 799 819 772 780 784 776 779 780 779 772 766 761 757 754 756 756 754 758 762 767 773 779 784 790 795 800 805 808 812 814 816 818 820 821 822 823 823 823 822 821
805 801 823 814 803 781 772 775 787 786 773 766 769 768 765 764 762 753 748 750 753 753 757 762 768 774 779 784 790 794 798 802 806 808 811 813 815 816 817 818 819 819 818 817
811 808 809 812 816 802 774 780 780 781 776 764 768 768 769 767 755 752 756 757 755 755 755 759 763 769 774 778 784 789 792 795 798 802 805 808 810 812 813 814 815 815 815 814
811 811 818 807 804 781 760 776 781 784 771 765 766 764 767 767 758 754 756 756 756 755 756 758 761 765 769 774 778 782 786 788 792 796 799 802 804 806 808 810 811 811 811 811
796 807 809 803 802 798 769 782 778 758 761 763 763 763 764 761 758 756 754 754 754 755 756 758 759 762 765 769 774 777 779 784 788 791 794 796 799 801 803 805 806 807 807 807
779 768 776 778 771 755 761 755 757 763 763 760 760 759 760 760 757 755 753 752 750 752 754 755 758 759 762 764 767 770 773 778 782 786 789 792 794 796 798 799 801 802 803 803
764 758 766 762 752 753 750 752 754 757 758 757 757 757 757 758 756 752 750 749 748 748 750 751 754 755 756 759 762 764 768 772 776 780 783 786 789 791 793 794 796 797 797 798
755 758 759 755 752 749 748 747 749 752 755 757 756 754 753 753 752 750 748 746 744 744 745 747 748 749 751 753 756 760 763 766 770 774 777 780 782 785 787 789 790 791 792 793
756 755 756 751 742 745 743 744 749 751 752 753 752 750 750 751 749 748 745 743 741 739 740 740 741 742 744 747 749 752 757 760 763 767 770 773 776 779 781 783 785 786 787 788